Date String (YYYY-MM-DD hh:mm:ss) UTC,Instrument flags,absolute air pressure of the measurement (hPa),sample flow rate (lpm),inlet stack bypass flow (lpm),air temperature of the measurement (°C),ambient temperature measured by the external sensor (°C),aerosol sample conditioner tube jacket temperature (°C),OPC LED temperature (°C),internal box temperature (°C),relative humidity of the measurement (%),span deviation,mass concentration of particles derived from Lorenz-Mie calculation of OPC scattering (μg/m³),mass concentration of particles derived from Lorenz-Mie calculation of OPC scattering (μg/m³),mass concentration of particles derived from Lorenz-Mie calculation of OPC scattering (μg/m³)
DateTimeUTC,F1_M11,P_M11,Q1_M11,Q2_M11,T1_M11,T2_M11,T3_M11,T4_M11,T5_M11,U1_M11,ZSPAN_M11,X0_M11,X2_M11,X1_M11
2024-01-19 23:00:00,SystemResetWarning,0832.6,5.00,000.00,020.6,019.8,000.0,028.9,021.9,12.2,0002.0,0014.38,0008.82,0008.11
2024-01-19 23:01:00,SystemResetWarning,0832.7,5.01,000.00,020.6,019.8,000.0,028.9,021.9,12.2,0001.7,0014.51,0008.87,0008.13
2024-01-19 23:02:00,SystemResetWarning,0832.7,5.01,000.00,020.6,019.8,000.0,028.9,021.9,12.2,0002.0,0014.40,0008.86,0008.15
2024-01-19 23:03:00,SystemResetWarning,0832.7,4.99,000.00,020.6,019.8,000.0,028.9,021.9,12.3,0002.3,0014.46,0008.84,0008.17
2024-01-19 23:04:00,SystemResetWarning,0832.7,5.00,000.00,020.6,019.8,000.0,028.9,021.9,12.3,0002.4,0014.30,0008.90,0008.17
2024-01-19 23:05:00,SystemResetWarning,0832.7,5.00,000.00,020.6,019.8,000.0,028.9,021.9,12.2,0002.6,0013.79,0008.95,0008.18
2024-01-19 23:06:00,SystemResetWarning,0832.7,5.00,000.00,020.6,019.8,000.0,028.9,021.9,12.2,0002.4,0014.25,0009.01,0008.21
2024-01-19 23:07:00,SystemResetWarning,0832.7,5.00,000.00,020.6,019.8,000.0,028.9,021.9,12.2,0002.1,0014.68,0009.06,0008.23
2024-01-19 23:08:00,SystemResetWarning,0832.7,5.00,000.00,020.6,019.8,000.0,028.9,021.9,12.1,0001.9,0014.61,0009.06,0008.24
2024-01-19 23:09:00,SystemResetWarning,0832.7,5.00,000.00,020.6,019.8,000.0,028.9,021.9,12.1,0002.1,0014.21,0009.01,0008.23
2024-01-19 23:10:00,SystemResetWarning,0832.8,5.00,000.00,020.6,019.8,000.0,028.9,021.9,12.1,0002.3,0013.71,0008.96,0008.22
2024-01-19 23:11:00,SystemResetWarning,0832.8,5.00,000.00,020.6,019.8,000.0,028.9,021.9,12.1,0002.2,0014.07,0008.97,0008.23
2024-01-19 23:12:00,SystemResetWarning,0832.8,5.01,000.00,020.6,019.8,000.0,028.9,021.9,12.2,0002.7,0014.44,0008.95,0008.23
2024-01-19 23:13:00,SystemResetWarning,0832.7,5.00,000.00,020.6,019.8,000.0,028.9,021.9,12.2,0003.0,0014.51,0008.97,0008.23
2024-01-19 23:14:00,SystemResetWarning,0832.8,5.01,000.00,020.6,019.9,000.0,028.9,021.9,12.0,0002.7,0014.52,0009.04,0008.24
2024-01-19 23:15:00,SystemResetWarning,0832.8,5.00,000.00,020.6,019.9,000.0,028.9,021.9,11.9,0002.7,0014.29,0009.00,0008.24
2024-01-19 23:16:00,SystemResetWarning,0832.7,5.00,000.00,020.6,019.9,000.0,028.9,021.9,11.9,0001.6,0014.19,0008.99,0008.26
2024-01-19 23:17:00,SystemResetWarning,0832.7,4.99,000.00,020.6,019.9,000.0,028.9,021.9,11.9,0000.0,0014.05,0008.99,0008.25
2024-01-19 23:18:00,SystemResetWarning,0832.8,5.00,000.00,020.6,019.9,000.0,028.9,022.0,11.9,0000.0,0013.78,0008.97,0008.24
2024-01-19 23:19:00,SystemResetWarning,0832.7,5.00,000.00,020.6,019.9,000.0,028.9,022.0,12.0,0000.0,0014.14,0008.99,0008.25
2024-01-19 23:20:00,SystemResetWarning,0832.8,5.00,000.00,020.6,019.9,000.0,028.9,022.0,11.9,0000.0,0013.93,0008.99,0008.26
2024-01-19 23:21:00,SystemResetWarning,0832.8,5.01,000.00,020.6,019.9,000.0,028.9,022.0,11.9,0002.1,0014.03,0008.98,0008.26
2024-01-19 23:22:00,SystemResetWarning,0832.8,5.01,000.00,020.6,019.9,000.0,028.9,022.0,11.8,0002.7,0013.78,0008.95,0008.23
2024-01-19 23:23:00,SystemResetWarning,0832.8,5.01,000.00,020.6,019.9,000.0,028.9,021.9,11.8,0002.8,0013.32,0008.92,0008.21
2024-01-19 23:24:00,SystemResetWarning,0832.9,5.00,000.00,020.6,019.9,000.0,028.9,021.9,11.8,0002.7,0013.37,0008.90,0008.19
2024-01-19 23:25:00,SystemResetWarning,0833.4,5.00,000.00,020.6,019.9,000.0,028.9,022.0,11.8,0002.8,0013.49,0008.86,0008.19
2024-01-19 23:26:00,SystemResetWarning,0833.4,4.99,000.00,020.6,019.9,000.0,028.9,022.0,11.8,0003.1,0014.92,0008.91,0008.18
2024-01-19 23:27:00,SystemResetWarning,0832.9,5.00,000.00,020.6,019.9,000.0,028.9,022.0,11.7,0002.9,0014.99,0008.91,0008.16
2024-01-19 23:28:00,SystemResetWarning,0832.8,5.01,000.00,020.6,019.9,000.0,028.9,021.9,11.7,0002.7,0015.79,0008.93,0008.16
2024-01-19 23:29:00,SystemResetWarning,0832.8,5.01,000.00,020.6,019.9,000.0,028.9,022.0,11.7,0002.8,0017.35,0009.03,0008.15
2024-01-19 23:30:00,SystemResetWarning,0832.8,5.00,000.00,020.6,019.9,000.0,028.9,022.0,11.7,0002.8,0018.71,0009.10,0008.14
2024-01-19 23:31:00,SystemResetWarning,0833.1,4.99,000.00,020.6,019.9,000.0,028.9,022.0,11.7,0003.0,0021.00,0009.16,0008.14
2024-01-19 23:32:00,SystemResetWarning,0833.4,5.00,000.00,020.6,019.9,000.0,029.0,021.9,11.7,0003.2,0021.43,0009.21,0008.15
2024-01-19 23:33:00,SystemResetWarning,0833.1,4.99,000.00,020.6,019.9,000.0,029.0,021.9,11.7,0003.5,0021.28,0009.25,0008.17
2024-01-19 23:34:00,SystemResetWarning,0832.9,5.00,000.00,020.6,019.9,000.0,029.0,022.0,11.6,0003.5,0021.28,0009.28,0008.18
2024-01-19 23:35:00,SystemResetWarning,0832.9,5.00,000.00,020.6,019.9,000.0,028.9,022.0,11.6,0003.5,0021.77,0009.29,0008.19
2024-01-19 23:36:00,SystemResetWarning,0832.8,5.00,000.00,020.6,019.8,000.0,029.0,022.0,11.6,0003.5,0021.77,0009.31,0008.18
2024-01-19 23:37:00,SystemResetWarning,0832.8,5.00,000.00,020.6,019.8,000.0,029.0,021.9,11.6,0003.4,0020.72,0009.26,0008.17
2024-01-19 23:38:00,SystemResetWarning,0833.0,5.01,000.00,020.6,019.8,000.0,029.0,022.0,11.6,0003.9,0020.15,0009.24,0008.17
2024-01-19 23:39:00,SystemResetWarning,0833.2,5.00,000.00,020.6,019.8,000.0,029.0,022.0,11.6,0004.0,0019.59,0009.23,0008.16
2024-01-19 23:40:00,SystemResetWarning,0833.4,5.00,000.00,020.6,019.8,000.0,029.0,022.0,11.6,0004.0,0018.30,0009.17,0008.15
2024-01-19 23:41:00,SystemResetWarning,0833.3,5.00,000.00,020.6,019.8,000.0,028.9,022.0,11.6,0004.1,0016.74,0009.07,0008.16
2024-01-19 23:42:00,SystemResetWarning,0833.5,5.00,000.00,020.6,019.8,000.0,028.9,022.0,11.6,0004.1,0014.52,0008.99,0008.15
2024-01-19 23:43:00,SystemResetWarning,0833.1,5.00,000.00,020.6,019.9,000.0,029.0,022.0,11.6,0004.2,0013.64,0008.99,0008.15
2024-01-19 23:44:00,SystemResetWarning,0832.9,5.00,000.00,020.6,019.9,000.0,029.0,022.0,11.6,0004.1,0013.64,0009.00,0008.15
2024-01-19 23:45:00,SystemResetWarning,0832.9,5.00,000.00,020.6,019.9,000.0,029.0,022.0,11.6,0004.0,0013.64,0008.99,0008.14
2024-01-19 23:46:00,SystemResetWarning,0832.9,5.00,000.00,020.6,019.9,000.0,029.0,022.0,11.7,0003.8,0013.29,0009.00,0008.15
2024-01-19 23:47:00,SystemResetWarning,0833.0,5.00,000.00,020.6,019.9,000.0,029.0,022.0,11.7,0003.8,0013.19,0009.04,0008.16
2024-01-19 23:48:00,SystemResetWarning,0832.9,5.00,000.00,020.6,019.9,000.0,029.0,022.0,11.6,0003.9,0014.06,0009.02,0008.15
2024-01-19 23:49:00,SystemResetWarning,0832.9,5.00,000.00,020.6,019.9,000.0,029.0,021.9,11.7,0003.5,0015.05,0009.06,0008.15
2024-01-19 23:50:00,SystemResetWarning,0833.0,5.00,000.00,020.6,019.9,000.0,029.0,021.9,11.7,0003.7,0015.51,0009.05,0008.16
2024-01-19 23:51:00,SystemResetWarning,0833.0,5.01,000.00,020.6,019.9,000.0,029.0,021.9,11.6,0003.8,0015.92,0009.02,0008.16
2024-01-19 23:52:00,SystemResetWarning,0833.1,5.00,000.00,020.6,019.9,000.0,029.0,021.9,11.6,0003.6,0015.92,0008.99,0008.14
2024-01-19 23:53:00,SystemResetWarning,0833.0,5.00,000.00,020.6,019.8,000.0,029.0,021.9,11.6,0003.4,0015.83,0009.02,0008.14
2024-01-19 23:54:00,SystemResetWarning,0833.1,5.00,000.00,020.6,019.8,000.0,029.0,021.9,11.6,0002.8,0015.96,0009.05,0008.11
2024-01-19 23:55:00,SystemResetWarning,0832.9,4.99,000.00,020.6,019.8,000.0,029.0,021.9,11.6,0002.4,0015.93,0009.04,0008.10
2024-01-19 23:56:00,SystemResetWarning,0832.9,5.00,000.00,020.6,019.8,000.0,029.0,021.9,11.6,0002.1,0015.93,0009.03,0008.08
2024-01-19 23:57:00,SystemResetWarning,0832.9,4.99,000.00,020.6,019.8,000.0,029.0,021.9,11.6,0000.6,0015.81,0009.02,0008.07
2024-01-19 23:58:00,SystemResetWarning,0832.9,5.00,000.00,020.6,019.8,000.0,029.0,021.9,11.6,0002.8,0016.01,0008.96,0008.06
2024-01-19 23:59:00,SystemResetWarning,0832.9,5.00,000.00,020.6,019.8,000.0,028.9,021.9,11.5,0002.9,0016.41,0008.97,0008.05
